Location: Mohawk View
(42.7837°N, 73.7885°W)
Time: 08:36:19
(UTC+00:00)

Cosmos 2227 - Pass Details

Date: 17 June 2021
Orbit: 835 x 860 km, 71.0° (Epoch: 27 July)

Event Time Altitude Azimuth Distance (km) Brightness Sun altitude
Rises 01:08:49 0° 337° (NNW) 3,394 8.6 -5.7°
Reaches altitude 10° 01:11:17 10° 339° (NNW) 2,455 7.7 -6.0°
Maximum altitude 01:16:54 72° 64° (ENE) 881 4.3 -6.8°
Drops below altitude 10° 01:22:30 10° 149° (SSE) 2,443 6.0 -7.6°
Enters shadow 01:22:58 - 149° (SSE) 2,623 6.1 -7.7°
